Starlink 4557

operational
NORAD ID: 53432 Int'l Des: 2022-097 Owner: SPXS Country: US Constellation: starlink
LEOCIRCULAR

About Starlink 4557

Description loading...

Live Position

Loading 3D Globe...

Upcoming Passes

Altitude History

Altitude vs Time

uPlot chart will show altitude changes over time

Two-Line Element Set

1 53432U 22097AW 26063.16843066 -.00000454 00000-0 -10404-4 0 9996
2 53432 53.2170 128.6688 0001506 92.0462 268.0703 15.08845307197959
Epoch: Mar 4, 2026 • Age: 9 hours

Current Status

Altitude 545.2 km
Velocity 7.60 km/s
Sub-Earth Point 52.81°N, 93.57°W
Launch Date Aug 10, 2022
Age 3.5 years
Type internet

Technical Details

Classification Payload
Mass 297.00 kg
Dry Mass 275.00 kg
Total Mass 297.00 kg
Length 0.20 m
Diameter 2.80 m
Span 9.00 m
Shape Box + pan
Manufacturer SPXS
Bus Type Starlink
Phase Status In Orbit
Owner/State SPXS/US

Large Constellations

Loading constellations...